McCall, ID

6:58 AM MDT on April 22, 2018 (GMT -0600)
McCall

Weather History for KMYL - February, 2013

Change the Weather History Date:

Saturday, February 2, 2013

  Actual Average Record
Temperature  
Mean Temperature 21 °F 21 °F  
Max Temperature 33 °F 31 °F 48 °F (1934)
Min Temperature 9 °F 11 °F -29 °F (1950)
Degree Days  
Heating Degree Days 44 44  
Month to date heating degree days 79 88  
Since 1 July heating degree days 4932 5562  
Cooling Degree Days 0 0  
Month to date cooling degree days 0 0  
Year to date cooling degree days 0 0  
Moisture  
Dew Point 13 °F    
Average Humidity 78    
Maximum Humidity 92    
Minimum Humidity 63    
Precipitation  
Precipitation 0.01 in 0.08 in 0.92 in (1963)
Month to date precipitation 0.01 0.15  
Year to date precipitation 2.91 1.88  
Sea Level Pressure  
Sea Level Pressure 30.45 in    
Wind  
Wind Speed 1 mph (SSE)    
Max Wind Speed 6 mph    
Max Gust Speed 7 mph    
Visibility 7 miles    
Events Fog    
T = Trace of Precipitation, MM = Missing Value Source: NWS Daily Summary

Daily Weather History Graph

Daily Weather History Graph

Search for Another Location

Airport or City:

Astronomy

Feb. 02, 2013 Rise Set
Actual Time 8:02 AM MST 5:54 PM MST
Civil Twilight 7:31 AM MST 6:25 PM MST
Nautical Twilight 6:56 AM MST 7:00 PM MST
Astronomical Twilight 6:21 AM MST 7:35 PM MST
Moon 12:24 AM MST (2/2) 10:55 AM MST (2/2)
Length of Visible Light 10h 54m
Length of Day
9h 52m
Waning Gibbous, 59% of the Moon is Illuminated
Feb 2
Waning Gibbous
Feb 3
Last Quarter
Feb 10
New
Feb 17
First Quarter
Feb 25
Full

Hourly Weather History & Observations

Time (MST) Temp. Windchill Dew Point Humidity Pressure Visibility Wind Dir Wind Speed Gust Speed Precip Events Conditions
12:51 AM 16.0 °F - 12.9 °F 88% 30.52 in 10.0 mi Calm Calm - N/A   Clear
1:51 AM 15.1 °F - 12.0 °F 88% 30.51 in 10.0 mi Calm Calm - N/A   Clear
2:39 AM 14.0 °F - 10.4 °F 86% 30.40 in 2.5 mi Calm Calm - N/A   Partly Cloudy
2:42 AM 14.0 °F - 12.2 °F 93% 30.41 in 1.0 mi Calm Calm - N/A   Mist
2:48 AM 12.2 °F - 10.4 °F 92% 30.41 in 0.5 mi Calm Calm - N/A Fog Light Freezing Fog
2:51 AM 12.9 °F - 10.9 °F 92% 30.54 in 0.5 mi Calm Calm - N/A Fog Light Freezing Fog
2:58 AM 14.0 °F - 12.2 °F 93% 30.41 in 1.2 mi Calm Calm - N/A   Partly Cloudy
3:02 AM 14.0 °F - 10.4 °F 86% 30.41 in 3.0 mi Calm Calm - N/A   Partly Cloudy
3:51 AM 12.9 °F - 9.0 °F 84% 30.53 in 10.0 mi Calm Calm - N/A   Clear
4:25 AM 14.0 °F - 10.4 °F 86% 30.40 in 10.0 mi Calm Calm - N/A   Partly Cloudy
4:40 AM 12.2 °F - 8.6 °F 85% 30.40 in 10.0 mi Calm Calm - N/A   Mostly Cloudy
4:51 AM 12.0 °F - 8.1 °F 84% 30.52 in 10.0 mi Calm Calm - N/A   Overcast
5:29 AM 12.2 °F - 6.8 °F 79% 30.41 in 9.0 mi Calm Calm - N/A   Scattered Clouds
5:35 AM 12.2 °F - 8.6 °F 85% 30.41 in 7.0 mi Calm Calm - N/A   Mostly Cloudy
5:43 AM 12.2 °F - 8.6 °F 85% 30.41 in 10.0 mi Calm Calm - N/A   Partly Cloudy
5:51 AM 12.9 °F - 10.0 °F 88% 30.55 in 10.0 mi Calm Calm - N/A   Partly Cloudy
6:51 AM 10.9 °F - 7.0 °F 84% 30.56 in 10.0 mi Calm Calm - N/A   Clear
7:51 AM 10.9 °F - 6.1 °F 81% 30.57 in 10.0 mi Calm Calm - N/A   Clear
8:51 AM 12.9 °F - 7.0 °F 77% 30.58 in 10.0 mi Calm Calm - N/A   Clear
9:51 AM 18.0 °F - 10.9 °F 74% 30.56 in 10.0 mi Calm Calm - N/A   Clear
10:51 AM 21.9 °F 17.2 °F 15.1 °F 75% 30.56 in 10.0 mi South 3.5 mph - N/A   Clear
11:51 AM 24.1 °F - 19.0 °F 81% 30.57 in 10.0 mi Calm Calm - N/A   Clear
12:51 PM 21.9 °F - 19.0 °F 89% 30.57 in 10.0 mi Calm Calm - N/A   Clear
1:51 PM 28.0 °F - 21.9 °F 78% 30.53 in 10.0 mi Calm Calm - N/A   Clear
2:51 PM 30.0 °F - 23.0 °F 75% 30.51 in 10.0 mi Calm Calm - N/A   Clear
3:51 PM 32.0 °F 28.7 °F 21.0 °F 64% 30.48 in 10.0 mi SSE 3.5 mph - 0.01 in   Clear
4:51 PM 30.9 °F 27.5 °F 21.0 °F 67% 30.48 in 10.0 mi South 3.5 mph - N/A   Clear
6:51 PM 24.1 °F - 19.0 °F 81% 30.51 in 10.0 mi Calm Calm - N/A   Clear
7:51 PM 21.9 °F - 19.9 °F 92% 30.51 in 10.0 mi Calm Calm - N/A   Clear
8:51 PM 18.0 °F - 16.0 °F 92% 30.50 in 9.0 mi Calm Calm - N/A   Clear
9:51 PM 18.0 °F - 15.1 °F 88% 30.48 in 10.0 mi Calm Calm - N/A   Clear
10:06 PM 15.8 °F - 12.2 °F 86% 30.30 in 6.0 mi Calm Calm - N/A   Partly Cloudy
10:51 PM 17.1 °F - 14.0 °F 88% 30.45 in 10.0 mi Calm Calm - N/A   Clear
11:03 PM 17.6 °F - 14.0 °F 86% 30.29 in 6.0 mi Calm Calm - N/A   Partly Cloudy
11:15 PM 15.8 °F - 14.0 °F 93% 30.29 in 1.0 mi Calm Calm - N/A   Mist
11:22 PM 15.8 °F - 12.2 °F 86% 30.29 in 2.0 mi Calm Calm - N/A   Mostly Cloudy
11:27 PM 15.8 °F - 12.2 °F 86% 30.29 in 1.0 mi Calm Calm - N/A   Mist
11:33 PM 15.8 °F - 12.2 °F 86% 30.29 in 0.5 mi Calm Calm - N/A Fog Light Freezing Fog
11:51 PM 16.0 °F 10.4 °F 12.9 °F 88% 30.45 in 1.0 mi NNE 3.5 mph - N/A   Mist
11:56 PM 15.8 °F - 12.2 °F 86% 30.29 in 2.0 mi Calm Calm - N/A   Mostly Cloudy